Flag for U.S.A. Weather past 2 weeks in Billings, Montana, U.S.A.

7 °F

Passing clouds.

Feels Like: -3 °F
Forecast: 6 / 25 °F
Wind: 6 mph from South

Location: Billings Logan International Airport

Current Time: Nov 26, 2015 at 4:02:49 AM

Latest Report: Nov 26, 2015 at 2:53 AM

Visibility: 10 mi

Pressure: 30.52 "Hg (26.94 "Hg at 946m altitude)

Humidity: 87%

Dew point: 4 °F

Location of BillingsLocation

Historic Weather in Billings — Graph


Billings temperature yesterday

Maximum temperature yesterday: 25 °F (at 12:00 AM)
Minimum temperature yesterday: 13 °F (at 11:53 PM)
Average temperature yesterday: 19 °F

Past Weeks' High & Low Weather Summary

High63 °F (Nov 14, 11:53 AM)96% (Nov 16, 6:53 PM)30.58 "Hg (Nov 16, 6:53 PM)
Low7 °F (Nov 26, 2:53 AM)18% (Nov 14, 12:53 PM)29.19 "Hg (Nov 18, 2:53 AM)
Average35 °F54%29.99 "Hg
* Reported Nov 11 2:53 AM — Nov 26 2:53 AM, Billings, Weather by CustomWeather, © 2015

Note: Actual official high and low records may vary slightly from our data, if they occured in-between our weather recording intervals... More about our weather records


Billings weather history for previous 24 hours

Time TempWeatherWind HumidityBarometerVisibility
2:53 AM
Thu, Nov 26
7 °FPassing clouds.6 mph87%30.52 "Hg10 mi
1:53 AM10 °FPassing clouds.6 mph80%30.50 "Hg10 mi
12:53 AM8 °FPartly cloudy.3 mph95%30.49 "Hg10 mi
11:53 PM
Wed, Nov 25
13 °FMostly cloudy.No wind88%30.49 "Hg10 mi
10:53 PM14 °FPartly cloudy.No wind84%30.48 "Hg10 mi
9:53 PM15 °FPassing clouds.No wind83%30.47 "Hg10 mi
8:53 PM16 °FPassing clouds.No wind80%30.47 "Hg10 mi
7:53 PM16 °FOvercast.3 mph80%30.47 "Hg10 mi
6:53 PM17 °FOvercast.3 mph76%30.45 "Hg10 mi
5:53 PM17 °FPassing clouds.5 mph80%30.44 "Hg10 mi
4:53 PM17 °FMostly cloudy.6 mph83%30.42 "Hg10 mi
3:53 PM18 °FLight snow. Overcast.5 mph80%30.40 "Hg3 mi
2:53 PM18 °FBroken clouds.7 mph80%30.37 "Hg10 mi
1:53 PM19 °FLight snow. Mostly cloudy.7 mph81%30.37 "Hg2 mi
12:53 PM19 °FLight snow. Mostly cloudy.8 mph81%30.37 "Hg1 mi
11:53 AM19 °FLight snow. Cloudy.13 mph74%30.38 "Hg3 mi
11:04 AM18 °FLight snow. Mostly cloudy.12 mph80%30.26 "Hg2 mi
10:53 AM18 °FLight snow. Mostly cloudy.10 mph77%30.39 "Hg4 mi
9:53 AM18 °FLight snow. Mostly cloudy.14 mph80%30.37 "Hg3 mi
8:53 AM17 °FLight snow. Ice fog.18 mph83%30.35 "Hg3 mi
7:58 AM18 °FLight snow. Low clouds.13 mph80%30.20 "Hg2 mi
6:53 AM19 °FLight snow. Low clouds.14 mph81%30.29 "Hg4 mi
5:53 AM20 °FLight snow. Mostly cloudy.14 mph78%30.25 "Hg4 mi
4:53 AM20 °FLight snow. Ice fog.10 mph85%30.22 "Hg5 mi
Weather by CustomWeather, © 2015

See weather overviewHow to use our weather pages